Simultaneous Nadir Overpasses (SNOs) Predictions

Prediction of SNOs between GOES-16 and NOAA-19 Satellite Orbit:

Table of predicted SNOs for the next 14.0 days since TLE Epoch: 8/30/2019
Index Date Time (GOES-16) GOES-16 Lat,Lon NOAA-19 Lat,Lon Distance(km) Time Diff (sec)
1 08/31/2019 22:20:14 -0.00, -75.18 -0.69, -78.22 346.36 80
2 09/01/2019 22:08:35 -0.00, -75.19 -0.05, -75.38 21.37 80
3 09/02/2019 21:59:37 -0.00, -75.19 0.60, -72.53 303.74 80
4 09/05/2019 10:20:38 0.00, -75.22 0.51, -77.51 261.24 80
5 09/06/2019 10:06:19 -0.00, -75.23 -0.15, -74.67 64.38 80
6 09/07/2019 09:54:41 -0.00, -75.24 -0.82, -71.83 390.05 80
7 09/09/2019 22:15:54 0.00, -75.27 -0.36, -76.84 179.97 80
8 09/10/2019 22:06:55 0.00, -75.28 0.29, -74.00 146.29 80
9 09/11/2019 21:55:17 0.00, -75.30 0.94, -71.15 472.73 80
10 09/13/2019 10:27:54 -0.00, -75.33 0.83, -78.96 414.42 80




NCC Satellite Simultaneous Nadir Overpasses (SNOs) Prediction Service
